GFSGL_sfc_thetae_141.txt.gz
Theta_e
283 284 284 284 283 284 283 284 284 285 286 288 289 290 293 295 297 303 311 315 319 319 317 320 320 316 313 324 326 327 326 328 322 326 329 330 329 331 330 330 332 331 328
282 281 282 282 282 282 282 282 282 284 285 285 287 287 288 290 293 294 294 295 297 297 298 299 301 306 304 301 311 324 325 327 324 322 324 325 327 330 331 329 329 330 330
281 280 280 280 280 279 280 281 282 283 284 284 285 285 286 287 287 289 290 290 291 292 292 292 292 295 295 296 295 299 304 313 324 324 322 323 324 325 328 327 328 329 329
281 280 279 279 279 279 279 280 280 281 282 283 283 284 284 285 286 285 285 286 287 287 289 290 289 291 291 292 290 292 296 301 307 312 320 318 315 310 309 306 319 316 323
281 281 280 280 280 279 279 279 280 280 280 282 282 282 283 284 284 284 283 282 282 283 284 286 288 289 288 288 288 287 290 291 295 296 297 297 292 292 291 292 298 298 303
280 280 281 280 280 279 279 279 279 279 279 281 281 282 282 283 285 284 283 282 281 280 280 282 284 285 285 285 285 286 285 286 286 288 287 287 285 286 288 291 292 294 299
280 280 280 280 279 279 279 278 278 278 278 279 279 280 280 281 283 283 282 280 279 280 280 280 280 282 283 283 283 283 283 284 283 283 283 282 283 283 284 286 288 290 291
280 279 279 279 278 278 278 278 278 278 277 276 277 279 280 280 280 281 280 280 279 279 280 280 280 280 282 282 283 282 282 282 282 283 282 281 282 283 283 284 285 286 288
278 278 279 278 278 277 277 277 278 278 278 277 276 276 277 279 279 278 279 278 278 277 278 279 280 280 280 281 281 280 280 280 283 283 283 282 282 282 283 285 282 283 285
278 278 279 279 277 276 277 277 278 278 277 278 277 276 277 276 278 278 277 277 276 275 276 276 278 278 279 278 278 277 275 276 278 279 280 281 281 281 281 282 283 281 282
279 279 279 279 278 278 278 278 277 277 277 277 276 276 275 276 276 277 276 274 274 274 275 274 276 276 277 276 276 275 274 276 277 277 278 278 280 279 280 281 282 282 281
279 278 278 278 278 279 279 278 277 276 275 275 275 276 277 276 276 276 275 274 273 272 272 273 273 274 273 274 273 273 273 274 275 275 275 275 275 276 278 279 281 281 283
278 277 276 276 277 278 278 278 277 276 275 274 275 275 275 276 277 275 275 274 272 271 272 271 272 271 271 271 272 271 270 271 271 271 271 272 274 276 279 279 280 281 283
276 276 275 275 275 276 276 276 276 276 275 274 274 274 275 276 276 276 275 274 273 272 270 270 269 270 268 269 269 270 269 269 269 269 270 272 274 274 275 277 278 279 280
276 275 274 274 274 274 274 275 275 276 275 274 274 274 274 275 276 276 275 274 272 270 270 270 269 269 268 268 268 268 268 267 267 268 269 270 271 272 273 276 276 277 277
275 274 274 274 274 273 273 273 275 275 275 275 275 275 276 276 276 275 274 274 272 270 270 268 267 268 267 267 267 267 267 265 266 267 267 268 269 270 271 274 275 275 275
274 274 274 273 273 272 272 272 271 274 274 274 275 275 275 275 275 275 274 273 272 271 270 269 268 268 268 267 267 266 265 265 266 266 266 266 266 268 270 271 272 273 273
273 271 273 273 273 272 272 272 272 271 271 272 273 273 273 274 274 274 273 273 272 272 271 270 269 269 268 268 267 266 266 266 265 265 265 264 265 266 268 269 270 270 271
274 273 273 273 273 272 273 273 272 272 271 271 272 272 270 271 272 272 272 271 270 271 271 271 271 270 269 269 267 266 266 265 264 264 264 264 264 265 266 267 268 268 269
273 272 271 272 272 271 271 271 271 270 270 270 269 267 269 270 269 269 270 269 269 269 270 270 271 271 270 269 269 268 267 266 265 265 264 264 264 264 265 266 267 267 269
273 272 270 271 270 270 270 269 269 268 268 268 267 266 264 266 266 267 267 267 266 267 267 268 269 270 271 271 270 269 267 266 265 264 264 264 263 263 265 266 266 267 268
271 271 270 269 269 268 268 268 267 266 266 265 265 265 262 265 265 265 265 264 265 265 266 266 266 267 268 269 269 269 267 265 265 265 264 263 263 264 264 265 265 266 267
269 269 268 267 267 265 265 265 265 264 264 263 262 262 263 263 263 263 262 262 263 263 263 263 264 264 267 267 268 268 267 266 265 264 262 262 263 263 263 264 264 264 265
268 267 266 265 264 264 263 262 262 260 260 260 260 260 260 260 261 261 260 261 261 261 261 261 262 262 263 264 267 268 267 266 266 264 261 262 262 263 262 263 263 263 264
266 265 264 263 262 261 261 260 260 259 259 259 259 258 259 259 260 259 259 259 258 259 259 259 260 261 261 261 264 266 265 263 262 259 263 262 262 261 262 262 262 263 264
264 263 262 262 261 260 259 258 258 257 257 257 257 257 257 258 258 257 257 257 257 256 257 259 259 259 259 262 266 265 262 260 262 259 261 262 262 262 262 261 262 262 263

GFSGL_sfc_thetae_144.txt.gz
Theta_e
286 287 287 285 286 287 285 285 285 286 287 286 287 288 288 290 293 295 296 297 298 298 303 305 320 324 325 326 325 322 323 323 321 326 332 333 333 334 335 337 335 337 330
284 284 285 285 284 285 284 285 286 284 286 286 286 286 286 286 288 288 288 289 289 290 291 293 295 304 310 315 316 324 323 325 320 320 328 331 330 334 333 333 333 334 336
285 284 283 283 282 283 283 284 284 284 284 285 286 285 284 285 286 285 286 285 285 286 287 287 287 289 294 297 305 304 310 319 317 319 323 328 329 327 332 333 333 333 333
286 285 283 283 283 283 283 283 283 283 283 283 283 284 284 283 284 284 284 284 283 283 284 285 286 286 286 289 291 296 299 306 312 311 312 308 305 305 304 308 319 310 308
286 285 285 285 285 283 283 282 282 282 283 283 282 281 283 283 283 283 283 282 282 282 282 283 284 286 286 286 286 286 292 295 295 297 293 292 292 293 293 296 300 303 297
285 284 285 285 284 284 284 283 281 281 281 282 282 281 281 281 282 283 283 283 281 280 279 280 281 283 284 285 285 285 284 285 286 287 287 286 284 285 289 291 292 297 302
284 284 284 284 283 283 284 283 283 281 280 281 281 282 280 280 281 281 281 282 281 281 280 279 280 281 282 284 283 283 283 283 282 282 280 280 281 283 285 286 288 290 290
283 283 283 283 282 282 282 282 283 283 281 279 279 279 280 279 279 280 280 280 280 279 279 280 279 280 280 283 283 282 280 281 282 282 281 281 282 282 283 284 285 286 289
281 280 282 282 281 281 281 281 282 282 281 280 279 278 278 279 278 279 280 280 277 277 277 278 278 278 278 281 280 280 280 280 283 283 283 283 283 283 284 286 284 285 285
281 280 281 281 280 280 281 280 281 282 281 281 279 279 278 278 277 277 279 279 277 277 276 275 276 276 277 277 277 278 276 278 280 281 282 283 283 283 282 284 283 283 284
282 282 281 281 281 281 281 281 281 280 280 280 280 280 279 278 278 277 276 277 277 276 275 275 275 275 275 275 275 274 274 278 278 279 280 281 282 283 283 283 284 282 282
281 280 279 280 281 281 281 281 281 280 279 279 280 280 280 280 278 277 276 275 275 275 274 274 274 274 274 274 273 273 274 275 276 277 276 276 277 278 282 283 283 284 284
280 279 279 279 279 280 279 280 280 280 279 278 278 279 279 280 279 277 276 275 274 274 275 274 274 274 274 274 273 273 272 274 273 273 274 274 276 278 280 281 284 285 286
279 278 278 277 277 278 278 278 278 278 278 277 277 277 278 278 277 277 277 277 275 275 275 275 274 274 273 274 273 273 273 272 272 272 273 274 276 277 277 279 279 281 281
278 278 278 277 277 277 276 276 277 277 276 276 276 277 276 275 276 276 275 275 274 274 275 275 274 274 273 273 273 272 272 272 271 272 272 272 272 274 275 277 278 279 278
277 277 277 278 277 277 277 277 275 275 275 275 275 276 277 276 276 275 275 274 273 274 276 274 273 273 272 272 271 271 272 270 271 271 271 271 271 271 272 275 277 277 276
277 276 277 277 277 276 276 276 275 277 275 275 275 274 274 274 275 275 274 274 274 275 275 274 273 273 272 272 271 271 270 271 270 271 271 270 270 270 271 273 274 274 274
276 275 277 277 276 277 276 276 276 276 275 276 275 274 273 273 274 273 274 275 275 275 275 274 274 274 273 272 272 271 271 270 270 270 270 269 269 270 270 270 272 272 272
278 277 277 277 276 275 276 276 276 275 274 274 275 273 272 272 273 273 273 273 272 272 272 273 274 274 273 273 272 272 271 270 270 269 269 269 269 269 269 270 270 269 270
277 274 274 276 276 275 275 274 274 273 273 272 272 271 270 271 272 272 272 272 271 271 271 271 271 272 272 273 273 272 272 271 270 270 269 269 268 268 268 268 269 269 270
278 276 272 275 274 274 274 273 272 271 271 270 270 269 265 268 269 270 270 269 269 269 269 269 269 270 271 271 272 272 271 270 270 269 269 268 268 267 268 268 268 269 269
276 275 274 273 273 272 270 271 270 270 269 268 268 268 265 269 268 268 268 267 267 268 268 268 267 268 269 269 270 270 270 270 270 270 268 267 267 268 267 267 267 267 268
274 273 272 271 271 269 270 269 269 268 267 267 267 267 267 266 266 267 266 266 266 266 266 266 266 265 267 268 268 269 269 270 270 269 267 266 267 267 267 266 266 266 266
272 272 270 270 268 269 268 268 267 265 265 265 266 265 265 265 265 265 264 264 264 264 264 264 264 264 265 265 267 268 269 270 270 269 267 266 266 266 265 265 265 265 265
271 270 270 269 267 267 267 266 266 265 264 264 264 264 264 264 263 264 263 263 262 262 261 262 263 264 263 263 264 266 268 266 266 263 267 266 266 265 265 265 265 265 265
269 268 268 268 267 266 265 264 264 263 262 263 262 262 262 262 262 262 261 261 260 259 260 263 263 262 262 264 266 267 264 263 265 262 264 266 265 265 264 264 264 264 264

GFSGL_sfc_thetae_147.txt.gz
Theta_e
287 289 289 287 287 286 285 286 286 287 287 287 286 286 285 286 287 288 290 292 291 291 291 292 293 298 301 311 324 326 324 320 320 320 326 331 334 335 336 336 335 334 320
286 287 286 286 286 285 284 284 286 286 286 286 286 284 284 284 285 285 285 286 286 286 287 287 288 291 290 294 297 303 317 324 323 318 321 321 325 334 334 334 333 335 335
286 286 285 285 284 284 284 284 284 285 285 284 284 283 282 283 283 284 284 284 284 284 285 286 286 286 286 290 290 291 297 306 320 318 318 320 315 309 314 334 332 334 332
288 286 286 286 285 285 285 284 283 284 283 284 282 282 282 282 282 283 283 282 283 284 284 285 286 285 284 285 286 286 291 298 304 317 311 304 301 300 300 304 307 303 301
288 287 288 286 286 286 286 286 284 283 283 283 283 281 281 283 282 281 281 281 281 281 282 282 284 286 286 285 284 283 285 286 292 293 292 291 290 291 289 293 302 306 295
286 286 287 287 287 287 287 286 285 284 283 282 282 281 279 281 282 282 281 280 281 280 279 280 280 283 285 284 284 284 283 281 281 282 283 281 280 284 288 290 290 298 299
286 286 286 286 285 285 286 286 285 284 284 282 282 281 280 279 281 282 281 281 279 279 279 279 279 280 281 283 283 283 283 283 281 281 279 278 279 281 285 286 286 289 286
284 285 285 285 284 284 284 284 284 284 283 281 280 280 279 279 279 281 281 280 279 278 278 278 278 278 279 281 282 281 281 282 282 282 281 281 281 283 283 284 285 287 287
282 282 283 284 283 283 283 283 284 283 283 282 281 279 279 279 279 279 280 280 278 277 277 277 277 276 278 279 278 279 279 280 283 283 284 283 284 283 284 283 282 284 285
282 282 282 283 282 282 283 283 283 283 283 283 282 281 279 279 278 278 278 278 277 278 277 276 277 276 276 277 275 275 275 277 279 280 281 281 282 283 283 283 282 282 284
283 283 283 283 284 284 283 283 283 283 282 283 283 282 281 279 279 278 277 277 278 276 276 275 276 276 276 276 275 274 274 277 278 279 279 279 280 281 282 283 283 283 281
283 282 281 282 282 282 282 283 283 282 282 281 282 282 282 282 279 279 277 276 277 276 275 277 277 277 276 276 275 275 275 275 276 276 275 275 276 278 280 282 283 284 285
282 281 281 281 280 281 281 280 280 281 280 280 279 279 279 280 280 278 278 277 276 277 277 277 277 276 276 276 275 275 274 274 273 273 273 273 276 278 280 280 283 283 285
281 280 281 279 279 280 280 280 278 277 278 277 278 277 277 277 277 277 277 277 276 277 278 278 277 277 276 276 276 275 275 274 273 272 273 274 276 276 276 279 279 281 281
280 280 280 280 279 279 278 277 277 277 276 275 275 276 275 274 276 277 276 275 276 276 278 278 277 276 275 275 275 275 274 274 273 274 273 272 273 274 274 277 277 278 277
279 279 278 279 279 279 278 278 276 276 275 275 275 275 275 275 275 275 275 275 276 276 278 276 275 275 274 274 273 273 273 272 273 273 273 272 272 272 272 274 276 276 275
279 278 279 278 279 278 278 278 277 277 275 275 275 274 274 274 275 275 275 276 276 277 275 276 275 275 275 274 273 272 272 272 272 272 271 271 271 271 272 272 273 273 272
278 276 279 279 279 278 278 278 278 277 276 277 276 274 273 273 274 274 274 276 275 275 274 274 273 274 274 274 273 272 272 272 271 271 271 270 270 270 270 270 270 271 270
279 279 278 279 278 277 278 278 277 277 276 276 276 275 272 271 274 274 274 273 272 272 272 272 272 272 272 273 274 274 273 272 272 271 270 270 269 269 269 269 269 269 269
278 275 276 278 278 277 277 276 276 275 274 274 273 272 270 270 272 272 273 272 271 270 270 270 271 271 271 271 272 273 273 273 272 271 270 269 269 269 268 268 269 268 268
280 278 273 277 276 275 275 274 274 274 273 272 272 270 267 268 271 271 271 270 269 269 269 269 269 269 269 270 270 271 270 271 272 270 270 269 269 268 269 268 268 268 268
277 276 275 275 275 274 272 273 273 272 271 271 271 271 268 270 270 269 269 268 268 268 268 268 267 268 268 268 267 268 268 269 270 270 269 268 268 268 268 267 267 267 267
276 275 274 273 273 271 273 272 272 270 270 270 270 269 269 268 268 268 267 267 267 266 266 266 265 265 267 267 267 267 267 267 270 270 268 267 267 267 267 266 266 266 265
274 274 273 273 271 271 271 271 270 268 268 268 268 268 267 267 267 266 266 266 265 265 265 264 264 264 265 265 266 266 267 268 269 269 268 267 266 266 266 266 265 265 265
274 273 272 271 270 270 270 269 268 268 267 267 267 266 266 266 266 265 265 264 264 263 262 263 264 264 264 264 264 266 267 268 267 265 267 266 266 265 266 265 265 264 264
272 271 270 270 269 269 268 267 267 267 266 265 265 265 265 264 264 263 263 263 262 260 262 263 263 263 263 264 266 266 265 266 266 264 264 265 265 265 264 264 263 264 264

GFSGL_sfc_thetae_150.txt.gz
Theta_e
285 286 285 285 285 285 284 284 284 285 285 283 284 284 284 283 284 284 285 286 286 288 288 289 289 293 295 297 300 306 314 316 313 316 319 321 319 325 329 331 331 324 318
286 286 285 285 285 284 283 283 283 283 284 283 282 283 283 283 282 282 283 283 283 283 285 286 285 288 288 290 292 295 299 304 307 312 316 318 320 317 316 315 316 331 326
283 283 285 284 284 283 283 282 282 282 282 282 280 280 282 282 282 281 281 281 281 281 282 284 284 284 284 285 286 288 291 300 303 309 314 312 314 308 313 308 309 304 304
286 283 282 282 282 283 284 280 280 281 280 280 279 278 280 282 281 280 279 279 279 280 280 281 284 284 283 283 283 283 286 289 292 293 298 297 297 298 298 299 302 298 295
287 287 286 284 283 284 283 282 280 280 280 279 278 278 278 280 281 280 279 277 277 277 278 278 280 285 285 285 283 281 282 282 282 283 283 283 283 285 287 292 297 299 294
286 285 286 286 285 285 285 284 283 280 279 279 278 277 277 279 283 282 279 277 276 276 275 276 277 280 281 283 284 284 283 280 279 280 279 278 279 281 285 287 291 293 290
285 285 285 285 284 284 284 284 283 281 281 279 278 278 277 277 281 282 281 277 275 275 275 275 275 276 278 280 281 282 282 283 281 281 278 278 278 280 282 285 287 287 285
283 284 284 284 283 283 283 282 282 282 281 280 279 278 277 278 279 280 280 278 276 275 275 275 275 275 276 276 278 278 278 279 281 280 280 281 281 282 282 283 285 285 285
281 281 283 282 282 282 281 281 282 282 281 280 280 278 277 277 279 279 278 277 276 275 276 276 276 275 278 278 275 275 275 277 281 282 282 282 283 283 283 282 281 283 282
282 281 281 283 281 281 282 281 282 281 282 282 280 279 278 276 280 279 277 276 274 274 275 275 278 277 277 277 274 273 272 274 275 276 276 278 280 280 281 281 281 279 280
283 283 283 283 282 282 282 282 282 281 281 281 281 279 278 277 276 279 279 275 275 274 274 274 275 278 277 277 276 273 273 274 274 273 274 275 276 277 278 280 280 281 278
282 282 281 281 281 281 281 281 281 280 279 278 279 278 278 277 278 278 278 278 278 275 274 275 276 278 277 277 275 275 275 273 272 272 271 272 272 273 275 278 280 281 282
281 281 280 280 280 280 279 278 277 278 277 277 277 276 276 276 276 277 277 277 277 275 277 277 278 277 276 275 276 275 273 272 271 270 269 270 272 273 275 276 278 279 281
280 280 280 278 279 278 278 278 275 274 274 275 274 274 274 274 274 274 275 274 276 275 275 275 274 276 273 272 273 272 272 271 271 270 269 270 272 272 272 274 274 275 275
280 280 279 279 278 278 277 276 276 275 275 274 273 273 271 270 272 275 275 274 274 275 275 274 272 272 272 271 271 271 270 270 269 270 269 269 270 270 271 273 273 273 272
279 278 278 279 278 278 278 275 277 276 276 276 275 273 272 274 275 276 276 277 277 277 275 273 272 272 271 270 270 269 269 268 269 270 269 269 268 269 270 271 272 270 270
278 278 279 278 278 278 278 277 275 275 276 275 275 275 274 274 275 275 276 276 277 275 271 271 270 271 271 272 271 270 269 270 270 270 269 268 268 269 269 269 269 269 269
277 277 279 278 277 277 277 276 276 274 274 274 275 273 273 273 275 275 275 274 271 272 270 270 269 269 270 270 271 271 271 269 269 269 268 267 267 268 267 267 268 267 267
279 277 277 278 277 275 276 276 275 274 273 272 272 272 269 272 275 274 274 269 268 268 268 268 268 268 268 269 268 269 270 270 265 263 264 265 264 266 266 266 266 265 266
276 274 275 277 276 276 276 275 274 273 272 272 270 267 267 267 268 268 269 267 266 266 266 267 267 267 266 267 266 267 266 267 269 268 263 261 261 265 265 265 265 265 265
279 276 272 276 275 274 273 273 272 271 270 270 269 265 263 266 267 267 267 266 265 265 265 265 265 265 265 265 265 264 264 265 266 269 267 263 260 263 266 265 265 265 265
277 276 275 274 274 273 271 272 271 270 270 269 269 269 265 268 266 266 266 265 263 265 265 264 263 264 264 264 263 262 263 263 264 267 264 262 264 265 264 264 263 263 264
275 275 274 273 272 269 271 271 270 269 268 267 268 267 267 266 265 265 265 264 264 263 263 263 261 262 264 262 262 263 262 262 264 267 264 260 263 264 262 262 263 262 262
274 274 272 272 270 270 269 268 269 267 267 267 266 266 265 264 264 264 263 263 262 261 261 260 261 262 262 261 262 262 264 266 266 266 260 262 262 263 263 263 261 261 261
273 272 272 271 270 269 268 268 267 266 266 265 264 264 264 263 263 263 262 261 261 259 258 260 262 260 261 259 260 263 262 263 262 259 260 259 259 262 261 260 260 261 261
272 271 270 269 268 267 266 266 266 265 264 263 263 262 262 261 262 260 260 260 258 258 259 260 260 260 260 262 263 262 261 263 259 258 257 260 262 259 259 260 259 260 261